OK1CMJ-5 Weather Reports


time (UTC)temp
F
wind
direction
speed
knots
gust
knots
rain 1hr
in
rain 24hr
in
rain mn
in
humidity
%
barometer
mb
20260903124451 78 326 3.5 6.1 0.00 0.00 0.00 10 1022.5
20260903123551 75 309 0.9 6.1 0.00 0.00 0.00 10 1022.3
20260903122651 74 302 0.9 7.8 0.00 0.00 0.00 10 1022.6
20260903120851 73 297 1.7 6.1 0.00 0.00 0.00 10 1022.5
20260903115051 74 304 0.9 10.4 0.00 0.00 0.00 10 1022.7
20260903114151 74 305 1.7 7.0 0.00 0.00 0.00 10 1023.1
20260903113251 75 298 0.9 7.8 0.00 0.00 0.00 10 1023.1
20260903111451 78 303 0.9 5.2 0.00 0.00 0.00 10 1023.2
20260903110551 77 312 0.0 6.1 0.00 0.00 0.00 10 1023.2
20260903105651 76 307 0.9 9.6 0.00 0.00 0.00 10 1023.3
20260903104751 77 301 1.7 7.0 0.00 0.00 0.00 10 1023.4
20260903103851 77 311 1.7 10.4 0.00 0.00 0.00 10 1023.4
20260903102951 77 325 1.7 7.0 0.00 0.00 0.00 10 1023.5
20260903102051 77 301 1.7 10.4 0.00 0.00 0.00 10 1023.5
20260903101151 76 317 1.7 7.8 0.00 0.00 0.00 10 1023.6
20260903100251 75 319 0.9 7.0 0.00 0.00 0.00 10 1023.7
20260903095352 73 313 0.9 6.1 0.00 0.00 0.00 10 1023.7
20260903094451 72 320 1.7 7.8 0.00 0.00 0.00 10 1023.8
20260903093551 72 310 1.7 8.7 0.00 0.00 0.00 10 1023.7
20260903092651 73 302 1.7 7.0 0.00 0.00 0.00 10 1023.7
20260903091751 73 300 2.6 7.0 0.00 0.00 0.00 10 1023.8
20260903090851 72 290 1.7 7.0 0.00 0.00 0.00 10 1023.6
20260903085051 74 306 1.7 6.1 0.00 0.00 0.00 10 1023.5
20260903083251 72 316 2.6 9.6 0.00 0.00 0.00 10 1023.9
20260903082351 74 337 1.7 9.6 0.00 0.00 0.00 10 1023.8
20260903075651 73 324 0.9 7.8 0.00 0.00 0.00 10 1023.9
20260903074751 73 328 1.7 7.8 0.00 0.00 0.00 10 1023.8
20260903073851 72 327 1.7 7.8 0.00 0.00 0.00 10 1023.9
20260903072951 72 312 0.9 7.0 0.00 0.00 0.00 10 1023.9
20260903070251 72 318 2.6 7.8 0.00 0.00 0.00 10 1023.7
20260903064451 72 298 0.9 5.2 0.00 0.00 0.00 13 1023.7
20260903063551 71 295 1.7 5.2 0.00 0.00 0.00 15 1023.7
20260903061751 70 333 0.0 4.3 0.00 0.00 0.00 20 1023.7
20260903060851 69 321 1.7 3.5 0.00 0.00 0.00 20 1023.7
20260903055951 69 316 0.0 3.5 0.00 0.00 0.00 24 1023.7
20260903055051 67 300 1.7 3.5 0.00 0.00 0.00 26 1023.5
20260903054151 66 316 0.0 3.5 0.00 0.00 0.00 32 1023.5
20260903051451 59 328 0.0 2.6 0.00 0.00 0.00 51 1023.5
20260903050551 58 353 0.9 2.6 0.00 0.00 0.00 53 1023.6
20260903045651 58 314 0.9 3.5 0.00 0.00 0.00 53 1023.4
20260903044751 58 331 0.0 3.5 0.00 0.00 0.00 55 1023.4
20260903042951 58 335 0.9 3.5 0.00 0.00 0.00 57 1023.4
20260903042051 57 308 0.9 3.5 0.00 0.00 0.00 61 1023.3
20260903040251 56 0 0.0 0.0 0.00 0.00 0.00 64 1023.2
20260903035351 56 270 0.0 1.7 0.00 0.00 0.00 64 1023.3
20260903034451 56 0 0.0 0.0 0.00 0.00 0.00 64 1023.2
20260903033551 56 0 0.0 0.0 0.00 0.00 0.00 63 1023.3
20260903032651 56 0 0.0 0.0 0.00 0.00 0.00 63 1023.2
20260903031751 56 0 0.0 0.0 0.00 0.00 0.00 63 1023.4
20260903025951 56 0 0.0 0.0 0.00 0.00 0.00 62 1023.4
20260903025051 57 0 0.0 0.0 0.00 0.00 0.00 62 1023.4
20260903024151 57 0 0.0 0.0 0.00 0.00 0.00 62 1023.4
20260903022351 57 0 0.0 0.0 0.00 0.00 0.00 62 1023.4
20260903021451 57 0 0.0 0.0 0.00 0.00 0.00 62 1023.4
20260903020551 57 0 0.0 0.0 0.00 0.00 0.00 62 1023.5
20260903015651 57 0 0.0 0.0 0.00 0.00 0.00 61 1023.3
20260903014751 57 0 0.0 0.0 0.00 0.00 0.00 61 1023.4
20260903013851 57 0 0.0 0.0 0.00 0.00 0.00 61 1023.3
20260903012951 56 0 0.0 0.0 0.00 0.00 0.00 61 1023.3
20260903012051 56 0 0.0 0.0 0.00 0.00 0.00 61 1023.4
20260903011151 56 0 0.0 0.0 0.00 0.00 0.00 61 1023.4
20260903005351 56 0 0.0 0.0 0.00 0.00 0.00 60 1023.4
20260903004451 56 0 0.0 0.0 0.00 0.00 0.00 59 1023.4
20260903003551 56 0 0.0 0.0 0.00 0.00 0.00 59 1023.3
20260903002651 56 270 0.0 0.9 0.00 0.00 0.00 59 1023.3
20260903001751 56 270 0.0 0.9 0.00 0.00 0.00 58 1023.3
20260903000851 56 0 0.0 0.0 0.00 0.00 0.00 57 1023.4
20260902235051 56 0 0.0 0.0 0.00 0.00 0.00 57 1023.4
20260902234151 56 0 0.0 0.0 0.00 0.00 0.00 56 1023.4
20260902233251 56 0 0.0 0.0 0.00 0.00 0.00 56 1023.4
20260902232351 56 0 0.0 0.0 0.00 0.00 0.00 56 1023.3
20260902231451 56 0 0.0 0.0 0.00 0.00 0.00 56 1023.3
20260902225651 55 0 0.0 0.0 0.00 0.00 0.00 54 1023.3
20260902224751 55 0 0.0 0.0 0.00 0.00 0.00 53 1023.4
20260902223851 55 0 0.0 0.0 0.00 0.00 0.00 52 1023.4
20260902222951 55 0 0.0 0.0 0.00 0.00 0.00 51 1023.6
20260902222051 56 270 0.0 0.9 0.00 0.00 0.00 51 1023.5
20260902220251 56 270 0.0 0.9 0.00 0.00 0.00 48 1023.5
20260902214451 56 0 0.0 0.0 0.00 0.00 0.00 46 1023.4
20260902213551 56 270 0.0 1.7 0.00 0.00 0.00 45 1023.4
20260902212651 57 270 0.0 1.7 0.00 0.00 0.00 43 1023.5
20260902211751 57 270 0.0 1.7 0.00 0.00 0.00 42 1023.3
20260902205051 59 0 0.0 0.0 0.00 0.00 0.00 38 1023.1
20260902203251 60 270 0.0 0.9 0.00 0.02 0.00 37 1023.4
20260902202351 61 0 0.0 0.0 0.00 0.02 0.00 37 1023.1
20260902201453 61 324 0.0 1.7 0.00 0.02 0.00 38 1023.2
20260902200551 61 326 0.0 4.3 0.00 0.02 0.00 40 1023.3
20260902195651 60 317 0.0 7.0 0.00 0.02 0.00 41 1023.4
20260902194751 59 344 3.5 7.0 0.00 0.02 0.00 40 1023.4
20260902193851 59 90 0.0 1.7 0.00 0.02 0.00 35 1023.1
20260902192951 59 90 0.0 1.7 0.00 0.02 0.00 34 1023.0
20260902191150 60 0 0.0 0.0 0.00 0.02 0.00 33 1023.0
20260902190251 60 90 0.0 0.9 0.00 0.02 0.00 32 1023.0
20260902184451 60 90 0.0 1.7 0.00 0.02 0.00 30 1023.1
20260902183550 60 90 0.0 0.9 0.00 0.02 0.00 28 1022.9
20260902182651 61 90 0.0 0.9 0.00 0.02 0.00 27 1022.8
20260902181751 62 90 0.0 0.9 0.00 0.02 0.00 25 1022.6
20260902180851 64 0 0.0 0.0 0.00 0.02 0.00 21 1022.6
20260902175951 64 0 0.0 0.0 0.00 0.02 0.00 21 1022.5
20260902175057 65 90 0.0 0.9 0.00 0.02 0.00 19 1022.4
20260902174150 66 30 0.0 0.9 0.00 0.02 0.00 16 1022.4
20260902173251 67 1 0.0 0.9 0.00 0.02 0.00 15 1022.5
20260902172350 67 1 0.0 0.9 0.00 0.02 0.00 13 1022.3
20260902170550 69 1 0.0 0.9 0.00 0.02 0.00 11 1022.5
20260902165650 69 1 0.0 0.9 0.00 0.02 0.00 11 1022.4
20260902164751 69 1 0.0 2.6 0.00 0.02 0.00 10 1022.2
20260902162950 70 1 0.0 1.7 0.00 0.02 0.00 10 1022.5
20260902162050 71 1 0.0 2.6 0.00 0.02 0.00 10 1022.5
20260902161151 71 1 0.0 1.7 0.00 0.02 0.00 10 1022.5
20260902160250 72 1 0.0 1.7 0.00 0.02 0.00 10 1022.3
20260902155350 72 357 0.0 1.7 0.00 0.02 0.00 10 1022.3
20260902154450 74 357 0.0 2.6 0.00 0.02 0.00 10 1022.4
20260902153551 75 309 0.0 4.3 0.00 0.02 0.00 10 1022.4
20260902152650 76 328 0.0 1.7 0.00 0.02 0.00 10 1022.6
20260902151750 76 306 0.0 2.6 0.00 0.02 0.00 10 1022.6
20260902150850 77 286 0.9 3.5 0.00 0.02 0.00 10 1022.7
20260902145950 78 314 0.9 6.1 0.00 0.02 0.00 10 1022.8
20260902145051 75 317 0.9 5.2 0.00 0.02 0.00 10 1022.7
20260902144150 76 312 2.6 7.8 0.00 0.02 0.00 10 1022.7
20260902143250 78 292 1.7 6.1 0.00 0.02 0.00 10 1022.8
20260902142350 77 329 0.9 4.3 0.00 0.02 0.00 10 1022.9
20260902140550 76 297 0.9 6.1 0.00 0.02 0.00 10 1023.2
20260902135650 77 286 1.7 5.2 0.00 0.02 0.00 10 1023.1
20260902134750 79 344 0.0 3.5 0.00 0.02 0.00 10 1023.1
20260902133850 77 300 0.9 5.2 0.00 0.02 0.00 10 1023.1
20260902132950 78 275 0.0 3.5 0.00 0.02 0.00 10 1023.1
20260902132050 76 310 0.0 2.6 0.00 0.02 0.00 10 1023.2
20260902131150 76 316 0.0 6.1 0.00 0.02 0.00 10 1023.5
20260902130250 76 321 1.7 6.1 0.00 0.02 0.00 10 1023.5
20260902125351 76 306 0.0 4.3 0.00 0.02 0.00 10 1023.5